Location: Lanoux
(43.1180°N, 1.4255°E)
Time: 14:06:26
(UTC+00:00)

Meteor 2-10 - Pass Details

Date: 23 March 2026
Orbit: 736 x 866 km, 81.2° (Epoch: 18 April)

Event Time Altitude Azimuth Distance (km) Brightness Sun altitude
Rises 18:29:15 0° 210° (SSW) 3,253 7.6 -4.3°
Reaches altitude 10° 18:31:47 10° 218° (SW) 2,310 7.0 -4.8°
Maximum altitude 18:36:36 38° 286° (WNW) 1,137 5.7 -5.7°
Drops below altitude 10° 18:41:21 10° 355° (N) 2,267 6.6 -6.5°
Sets 18:43:49 0° 3° (N) 3,186 7.3 -7.0°
